Location: Ponte Samoggia
(44.5667°N, 11.1333°E)
Time: 22:23:33
(UTC+00:00)

Meteor 1-21 Rocket - Pass Details

Date: 26 May 2022
Orbit: 833 x 907 km, 81.2° (Epoch: 29 June)

Event Time Altitude Azimuth Distance (km) Brightness Sun altitude
Exits shadow 01:51:21 13° 177° (S) 2,290 6.0 -15.0°
Maximum altitude 01:56:24 67° 97° (E) 921 4.5 -14.4°
Drops below altitude 10° 02:01:56 10° 16° (NNE) 2,465 7.7 -13.8°
Sets 02:04:21 0° 14° (NNE) 3,398 8.5 -13.5°
